Flag for U.S.A. Weather past 2 weeks in Madison, Wisconsin, U.S.A.

Now
79 °F

Scattered clouds.


Feels Like: 79 °F
Forecast: 57 / 78 °F
Wind: 10 mph from Northwest

Location: Dane County Regional-Truax Field

Current Time: Jul 29, 2014 at 3:10:58 PM

Latest Report: Jul 29, 2014 at 1:53 PM


Visibility: 10 mi

Pressure: 30.02 "Hg

Humidity: 42%

Dew point: 54 °F

Location of MadisonLocation

Historic Weather in Madison — Graph

°F

Madison temperature yesterday

Maximum temperature yesterday: 74 °F (at 3:53 PM)
Minimum temperature yesterday: 55 °F (at 5:53 AM)
Average temperature yesterday: 65 °F

Past Weeks' High & Low Weather Summary

 TemperatureHumidityPressure
High87 °F (Jul 22, 6:53 PM)96% (Jul 17, 2:53 AM)30.19 "Hg (Jul 17, 2:53 AM)
Low49 °F (Jul 16, 5:53 AM)36% (Jul 17, 1:53 PM)29.73 "Hg (Jul 27, 9:53 AM)
Average69 °F67%30.00 "Hg
* Reported Jul 14 1:53 PM — Jul 29 1:53 PM, Madison, Weather by CustomWeather, © 2014

Note: Actual official high and low records may vary slightly from our data, if they occured in-between our weather recording intervals... More about our weather records

Advertising

Madison weather history for previous 24 hours

 ConditionsComfort  
Time TempWeatherWind HumidityBarometerVisibility
1:53 PM
Jul 29
79 °FScattered clouds.10 mph42%30.02 "Hg10 mi
12:53 PM77 °FPassing clouds.7 mph45%30.03 "Hg10 mi
11:53 AM76 °FPassing clouds.7 mph52%30.04 "Hg10 mi
10:53 AM74 °FPassing clouds.8 mph56%30.05 "Hg10 mi
9:53 AM71 °FPassing clouds.8 mph59%30.06 "Hg10 mi
8:53 AM68 °FScattered clouds.6 mph63%30.06 "Hg10 mi
7:53 AM63 °FSunny.No wind73%30.06 "Hg10 mi
6:53 AM60 °FPassing clouds.5 mph78%30.05 "Hg10 mi
5:53 AM59 °FPassing clouds.5 mph78%30.04 "Hg10 mi
4:53 AM59 °FPassing clouds.No wind78%30.04 "Hg10 mi
3:53 AM61 °FPassing clouds.6 mph72%30.03 "Hg10 mi
2:53 AM61 °FPassing clouds.5 mph72%30.04 "Hg10 mi
1:53 AM62 °FOvercast.5 mph70%30.06 "Hg10 mi
12:53 AM62 °FClear.3 mph70%30.06 "Hg10 mi
11:53 PM
Jul 28
64 °FPassing clouds.3 mph65%30.06 "Hg10 mi
10:53 PM64 °FPassing clouds.8 mph65%30.07 "Hg10 mi
9:53 PM65 °FPassing clouds.5 mph63%30.08 "Hg10 mi
8:53 PM66 °FScattered clouds.5 mph61%30.07 "Hg10 mi
7:53 PM70 °FPartly sunny.5 mph51%30.06 "Hg10 mi
6:53 PM72 °FScattered clouds.7 mph48%30.08 "Hg10 mi
5:53 PM73 °FPartly sunny.9 mph46%30.08 "Hg10 mi
4:53 PM73 °FBroken clouds.9 mph46%30.09 "Hg10 mi
3:53 PM74 °FPartly sunny.13 mph43%30.10 "Hg10 mi
Weather by CustomWeather, © 2014

See weather overviewHow to use our weather pages